FW6122 Weather Reports


Display with metric or nautical units.
time (UTC)temp
F
wind
direction
speed
MPH
gust
MPH
rain 1hr
in
rain 24hr
in
rain mn
in
humidity
%
barometer
mb
20260903234501 70 212 2.0 6.0 0.00 0.00 0.00 37 1009.6
20260903233119 71 227 3.0 6.0 0.00 0.00 0.00 38 1009.9
20260903231553 72 173 1.0 6.0 0.00 0.00 0.00 36 1010.0
20260903230106 72 175 3.0 7.0 0.00 0.00 0.00 37 1010.3
20260903224552 73 240 2.0 5.0 0.00 0.00 0.00 38 1010.5
20260903223104 73 241 3.0 6.0 0.00 0.00 0.00 33 1010.6
20260903221535 74 210 2.0 7.0 0.00 0.00 0.00 28 1011.0
20260903220031 73 167 1.0 8.0 0.00 0.00 0.00 27 1011.0
20260903214526 74 191 2.0 6.0 0.00 0.00 0.00 25 1011.3
20260903213038 75 221 2.0 8.0 0.00 0.00 0.00 23 1011.4
20260903211517 74 176 2.0 8.0 0.00 0.00 0.00 23 1011.4
20260903210014 74 219 1.0 9.0 0.00 0.00 0.00 22 1011.6
20260903204508 74 240 2.0 6.0 0.00 0.00 0.00 21 1011.7
20260903203005 75 242 3.0 6.0 0.00 0.00 0.00 19 1011.7
20260903201600 74 252 2.0 5.0 0.00 0.00 0.00 19 1011.8
20260903200055 73 192 3.0 9.0 0.00 0.00 0.00 18 1011.9
20260903194550 74 239 2.0 5.0 0.00 0.00 0.00 19 1012.1
20260903193046 74 227 2.0 5.0 0.00 0.00 0.00 18 1012.1
20260903191541 73 171 1.0 7.0 0.00 0.00 0.00 17 1012.2
20260903190037 73 159 2.0 7.0 0.00 0.00 0.00 17 1012.4
20260903184535 73 254 3.0 6.0 0.00 0.00 0.00 16 1012.6
20260903183028 73 185 1.0 5.0 0.00 0.00 0.00 15 1012.7
20260903181524 73 213 1.0 5.0 0.00 0.00 0.00 18 1012.8
20260903180019 72 107 1.0 6.0 0.00 0.00 0.00 17 1012.9
20260903174515 72 269 2.0 6.0 0.00 0.00 0.00 15 1013.0
20260903173011 71 200 2.0 4.0 0.00 0.00 0.00 13 1013.1
20260903171506 71 225 2.0 5.0 0.00 0.00 0.00 9 1013.0
20260903170002 70 221 2.0 4.0 0.00 0.00 0.00 10 1013.0
20260903164557 68 238 2.0 4.0 0.00 0.00 0.00 9 1012.9
20260903163053 67 213 2.0 5.0 0.00 0.00 0.00 10 1012.8
20260903161548 66 284 2.0 4.0 0.00 0.00 0.00 12 1012.7
20260903160048 65 249 2.0 5.0 0.00 0.00 0.00 11 1012.7
20260903154541 63 180 2.0 4.0 0.00 0.00 0.00 11 1012.7
20260903153036 62 176 1.0 3.0 0.00 0.00 0.00 13 1012.7
20260903151531 61 196 1.0 3.0 0.00 0.00 0.00 14 1012.6
20260903150031 60 196 1.0 4.0 0.00 0.00 0.00 13 1012.6
20260903144533 58 221 1.0 3.0 0.00 0.00 0.00 13 1012.5
20260903143017 56 221 1.0 3.0 0.00 0.00 0.00 19 1012.3
20260903141513 55 254 1.0 3.0 0.00 0.00 0.00 23 1011.9
20260903140010 53 254 1.0 3.0 0.00 0.00 0.00 32 1011.7
20260903134505 53 254 2.0 3.0 0.00 0.00 0.00 37 1011.4
20260903133108 53 253 2.0 3.0 0.00 0.00 0.00 40 1011.4
20260903131609 53 257 2.0 4.0 0.00 0.00 0.00 39 1011.3
20260903130055 54 248 3.0 5.0 0.00 0.00 0.00 38 1011.0
20260903124548 54 236 3.0 7.0 0.00 0.00 0.00 38 1010.8
20260903123045 55 219 4.0 8.0 0.00 0.00 0.00 36 1010.7
20260903121554 55 220 3.0 10.0 0.00 0.00 0.00 34 1010.7
20260903120035 55 263 5.0 8.0 0.00 0.00 0.00 33 1010.7
20260903114530 54 236 4.0 7.0 0.00 0.00 0.00 36 1010.6
20260903113026 55 250 4.0 9.0 0.00 0.00 0.00 34 1010.9
20260903111524 55 236 5.0 9.0 0.00 0.00 0.00 28 1011.0
20260903110017 56 242 5.0 10.0 0.00 0.00 0.00 26 1011.0
20260903104512 56 237 5.0 9.0 0.00 0.00 0.00 22 1011.2
20260903103009 56 238 4.0 9.0 0.00 0.00 0.00 17 1011.3
20260903101504 56 240 5.0 9.0 0.00 0.00 0.00 13 1011.4
20260903100100 56 209 4.0 9.0 0.00 0.00 0.00 10 1011.6
20260903094608 56 145 5.0 9.0 0.00 0.00 0.00 8 1011.7
20260903093100 56 238 6.0 10.0 0.00 0.00 0.00 5 1011.8
20260903091555 56 228 5.0 10.0 0.00 0.00 0.00 4 1011.9
20260903090042 56 222 4.0 9.0 0.00 0.00 0.00 4 1012.0
20260903084537 56 219 3.0 9.0 0.00 0.00 0.00 4 1012.1
20260903083033 57 243 5.0 10.0 0.00 0.00 0.00 3 1012.4
20260903081532 57 214 6.0 12.0 0.00 0.00 0.00 5 1012.5
20260903080024 57 230 5.0 9.0 0.00 0.00 0.00 7 1012.6
20260903074519 57 217 4.0 10.0 0.00 0.00 0.00 7 1012.7
20260903073022 57 227 3.0 7.0 0.00 0.00 0.00 7 1012.9
20260903071511 57 233 3.0 6.0 0.00 0.00 0.00 7 1012.8
20260903070006 58 239 4.0 10.0 0.00 0.00 0.00 6 1012.7
20260903064502 58 232 3.0 8.0 0.00 0.00 0.00 8 1012.8
20260903063057 58 202 2.0 10.0 0.00 0.00 0.00 9 1012.7
20260903061556 58 209 3.0 10.0 0.00 0.00 0.00 8 1012.6
20260903060059 58 228 3.0 7.0 0.00 0.00 0.00 9 1012.5
20260903054544 58 216 3.0 12.0 0.00 0.00 0.00 9 1012.6
20260903053043 58 227 2.0 7.0 0.00 0.00 0.00 8 1012.7
20260903051536 59 239 3.0 8.0 0.00 0.00 0.00 8 1012.8
20260903050037 59 197 3.0 11.0 0.00 0.00 0.00 9 1012.9
20260903044534 59 204 3.0 10.0 0.00 0.00 0.00 9 1013.0
20260903043133 59 234 4.0 9.0 0.00 0.00 0.00 9 1012.9
20260903041535 59 219 3.0 8.0 0.00 0.00 0.00 9 1012.7
20260903040032 60 224 4.0 9.0 0.00 0.00 0.00 10 1012.7
20260903034531 59 237 4.0 8.0 0.00 0.00 0.00 11 1012.6
20260903033030 59 230 3.0 6.0 0.00 0.00 0.00 13 1012.6
20260903031538 59 238 3.0 8.0 0.00 0.00 0.00 15 1012.5
20260903030027 58 216 3.0 5.0 0.00 0.00 0.00 21 1012.5
20260903024526 59 217 3.0 7.0 0.00 0.00 0.00 22 1012.5
20260903023029 60 245 4.0 8.0 0.00 0.00 0.00 22 1012.3
20260903021537 60 231 3.0 6.0 0.00 0.00 0.00 29 1012.0
20260903020028 61 203 3.0 8.0 0.00 0.00 0.00 33 1012.0
20260903014524 62 216 4.0 9.0 0.00 0.00 0.00 32 1012.1
20260903013022 63 225 4.0 8.0 0.00 0.00 0.00 29 1012.1
20260903011530 65 212 4.0 9.0 0.00 0.00 0.00 31 1012.2
20260903010028 66 233 4.0 10.0 0.00 0.00 0.00 30 1012.2
20260903004526 67 194 4.0 8.0 0.00 0.00 0.00 26 1012.3
20260903003020 68 243 4.0 9.0 0.00 0.00 0.00 21 1012.3
20260903001519 70 204 4.0 8.0 0.00 0.00 0.00 20 1012.3
20260903000035 70 159 4.0 9.0 0.00 0.00 0.00 22 1012.5